Regional Weather Roundup
Issued by NWS Bismarck, ND

Home | Current Version | Previous Version | Text Only | Print | Product List | Glossary On
Versions: 1 2 3 4 5 6 7 8 9 10 11 12 13 14 15 16 17 18 19 20 21 22 23 24 25 26 27 28 29 30 31 32 33 34 35 36 37 38 39 40 41 42 43 44 45 46 47 48 49 50
000
ASUS43 KBIS 271520
RWRBIS

NWR BROADCAST TEXT
NATIONAL WEATHER SERVICE BISMARCK ND
900 AM CST FRI FEB 27 2015

NOTE: "FAIR" INDICATES FEW OR NO CLOUDS BELOW 12,000 FEET WITH NO
SIGNIFICANT WEATHER AND/OR OBSTRUCTIONS TO VISIBILITY.


CITY           SKY/WX    TMP DP  RH WIND       PRES   REMARKS
WILLISTON      MOSUNNY   -4  -9  79 CALM      30.26F
MINOT          PTSUNNY   -3 -10  72 SW13      30.32S WCI -22
MINOT AFB      PTSUNNY   -3  -9  74 SW9       30.31F WCI -19
BISMARCK       MOSUNNY   -7 -12  79 SE3       30.40F
DICKINSON      SUNNY      2  -5  72 S13       30.20F WCI -15
GARRISON         N/A    -11 -11 100 CALM      30.32F
HETTINGER ARPT SUNNY      1  -5  75 S6        30.24F WCI -10
JAMESTOWN      MOSUNNY   -5 -11  75 SW5       30.41F WCI -16
BEACH          FAIR       1  -4  78 S16       30.17F WCI -18
CARRINGTON     FAIR      -2  -8  78 MISG      30.39F
CROSBY         FAIR      -6 -11  77 S12       30.24F WCI -24
HARVEY         FAIR      -8 -11  84 SW5       30.37S WCI -19
HAZEN          FAIR      -2 -11  65 CALM      30.35S
LINTON         FAIR      -8 -11  84 SE6       30.41S WCI -21
MANDAN         FAIR      -2  -8  78 S8        30.36F WCI -17
OAKES            N/A     -4  -8  84 S6        30.47F WCI -16
RUGBY          FAIR      -9 -15  77 S5        30.36S WCI -21
TIOGA          FAIR      -9 -11  92 CALM      30.27S
WATFORD CITY   FAIR      -4  -9  77 E7        30.24S WCI -18
$$

CITY           SKY/WX    TMP DP  RH WIND       PRES   REMARKS
GRAND FORKS    MOSUNNY   -6 -13  71 SW5       30.44S WCI -17
GRAND FORKS AF MOSUNNY   -2 -11  64 W7        30.43F WCI -15
DEVILS LAKE    MOSUNNY  N/A N/A N/A MISG        N/A
FARGO          SUNNY     -4 -12  68 SW9       30.49S WCI -20
CANDO          FAIR      -9 -13  84 CALM      30.37F
CAVALIER       FAIR       1  -9  60 W10       30.39R WCI -14
GWINNER        SUNNY      0  -8  71 SW10      30.49S WCI -17
ROLLA          FAIR      -2 -11  65 SW9       30.31S WCI -18
WALHALLA         N/A      0 -11  60 W8        30.38S WCI -15
$$

CITY           SKY/WX    TMP DP  RH WIND       PRES   REMARKS
ABERDEEN       SUNNY     -9 -16  71 S6        30.51R WCI -22
MOBRIDGE       MOSUNNY   -3  -9  75 SE6       30.38F WCI -15
BUFFALO          N/A      0  -6  76 SE8       30.09F WCI -14
RAPID CITY     SUNNY      2  -4  76 SE13      30.21F WCI -15
GLASGOW        PTCLDY     2  -5  72 SE15      30.11S WCI -17
SIDNEY         MOSUNNY    3 -27  22 CALM      30.26F
WOLF POINT     MOSUNNY    3  -4  72 E7        30.19F WCI  -9
GLENDIVE       SUNNY      5   0  78 SE7       30.17S WCI  -7
MILES CITY     MOSUNNY    4  -3  73 SE10      30.12S WCI -11
BAKER          SUNNY      2  -5  72 SE15      30.14F WCI -17
$$

CITY           SKY/WX    TMP DP  RH WIND       PRES   REMARKS
BILLINGS       PTCLDY     2  -2  83 SW8       29.97F WCI -12
GREAT FALLS    CLOUDY     7   4  87 NW5       29.94R WCI  -2
REGINA         PTSUNNY  -15 -18  84 SE10      30.20S WCI -35
ESTEVAN        PTSUNNY  -11 -17  77 S6        30.25S WCI -25
$$



USA.gov is the U.S. government's official web portal to all federal, state and local government web resources and services.